Miscellaneous Local Product
Issued by NWS Hastings, NE

Home | Current Version | Previous Version | Graphics & Text | Print | Product List | Glossary On
Versions: 1 2 3 4 5 6 7 8 9 10 11 12 13 14 15 16 17 18 19 20 21 22 23 24 25 26 27 28 29 30 31 32 33 34 35 36 37 38 39 40 41 42 43 44 45 46 47 48 49 50
000
AXUS43 KGID 301202
MISGRI

GID CWA HOURLY WEATHER ROUNDUP
NATIONAL WEATHER SERVICE HASTINGS NE
700 AM CDT SAT JUL 30 2016

NOTE: "FAIR" INDICATES FEW OR NO CLOUDS BELOW 12,000 FEET WITH NO
SIGNIFICANT WEATHER AND/OR OBSTRUCTIONS TO VISIBILITY.

...SOUTH CENTRAL NEBRASKA...

CITY           SKY/WX    TMP DP  RH WIND       PRES   REMARKS
GRAND ISLAND   TSTM      63  62  97 CALM      30.04R
HASTINGS       MOCLDY    66  60  81 SE10      30.02S
KEARNEY        CLOUDY    64  63  94 SE6       30.01S
ORD            LGT RAIN  64  62  93 S12       30.03S
YORK           CLOUDY    64  63  94 SE7       30.04R
AURORA         MOCLDY    63  62  99 SE6       30.03R
LEXINGTON      CLEAR     64  62  91 SE3       30.01R
HOLDREGE       CLEAR     63  61  93 CALM      30.00S
HEBRON         MOCLDY    62  60  94 CALM      30.02S

...NEBRASKA PANHANDLE...

CITY           SKY/WX    TMP DP  RH WIND       PRES   REMARKS
CHADRON        CLEAR     57  54  89 CALM      29.97S
ALLIANCE       CLOUDY    56  55  97 SE3       30.01F
SCOTTSBLUFF    CLEAR     59  56  89 CALM      30.04R
SIDNEY         LGT RAIN  67  59  75 VRB3      30.04R

...WESTERN AND NORTH CENTRAL NEBRASKA...

CITY           SKY/WX    TMP DP  RH WIND       PRES   REMARKS
VALENTINE      CLOUDY    66  60  81 SE13      30.00S
AINSWORTH      CLOUDY    62  58  88 SE10      30.01F
ONEILL         LGT RAIN  64  61  89 SW7       30.04R
BROKEN BOW     CLOUDY    64  63  96 E9        30.03R
IMPERIAL       CLEAR     63  60  90 SE7       30.00F
NORTH PLATTE   CLEAR     61  60  97 E6        30.01R FOG
MCCOOK         PTCLDY    65  63  93 CALM      30.00S FOG

...EASTERN NEBRASKA...

CITY           SKY/WX    TMP DP  RH WIND       PRES   REMARKS
NORFOLK        PTCLDY    60  58  92 CALM      30.04R
SO SIOUX CITY  CLEAR     58  57  97 CALM      30.03R
TEKAMAH        PTCLDY    58  56  93 CALM      30.02R
COLUMBUS       PTCLDY    59  52  77 CALM      30.04R
ALBION         LGT RAIN  62  59  91 CALM      30.05R
OMAHA EPPLEY   PTCLDY    60  58  92 NW3       30.02R
OFFUTT AFB     PTCLDY    61  61 100 CALM      30.01R
MILLARD        CLEAR     62  61  96 CALM      30.01S FOG
LINCOLN        CLEAR     62  60  93 CALM      30.04R
NEBRASKA CITY  CLEAR     60  60 100 S3        30.03S
BEATRICE       MOCLDY    62  61  96 CALM      30.03R
FALLS CITY     PTCLDY    61  61 100 CALM      30.01S

...NORTHERN KANSAS...

CITY           SKY/WX    TMP DP  RH WIND       PRES   REMARKS
GOODLAND       CLOUDY    61  59  93 S5        30.03S
HILL CITY      CLEAR     67  65  93 CALM      29.99F
NORTON         MOSUNNY   64  63  94 SE3       29.99F
SMITH CENTER   CLEAR     64  63  94 E9        30.00S
BELOIT         CLEAR     66  64  94 E9        29.98S
HAYS           MOCLDY    70  63  78 SW7       30.02R
RUSSELL        CLOUDY    69  67  93 S7        29.99S
CONCORDIA      PTCLDY    66  64  93 E5        30.01S
SALINA         MOCLDY    71  68  90 SE5       29.99S
TOPEKA         PTCLDY    64  62  93 CALM      30.01R



USA.gov is the U.S. government's official web portal to all federal, state and local government web resources and services.